Columbia Falls, MT

5:15 AM MDT on September 28, 2016 (GMT -0600)
Glacier Park International

Weather History for KGPI - April, 2012

Change the Weather History Date:

Thursday, April 26, 2012

  Actual Average Record
Temperature  
Mean Temperature 57 °F 46 °F  
Max Temperature 67 °F 59 °F 77 °F (1980)
Min Temperature 46 °F 33 °F 21 °F (1961)
Degree Days  
Heating Degree Days 8 19  
Month to date heating degree days 488 567  
Since 1 July heating degree days 6795 7338  
Cooling Degree Days 0 0  
Month to date cooling degree days 0 0  
Year to date cooling degree days 0 0  
Growing Degree Days 7 (Base 50)    
Moisture  
Dew Point 47 °F    
Average Humidity 76    
Maximum Humidity 96    
Minimum Humidity 55    
Precipitation  
Precipitation 0.33 in 0.04 in 0.48 in (2014)
Month to date precipitation 1.12 1.07  
Year to date precipitation 5.18 4.46  
Snow  
Snow 0.00 in - - ()
Month to date snowfall T  
Year to date snowfall 25.1  
Since 1 July snowfall 31.4  
Snow Depth 0.00 in    
Sea Level Pressure  
Sea Level Pressure 29.56 in    
Wind  
Wind Speed 6 mph (NNE)    
Max Wind Speed 24 mph    
Max Gust Speed 29 mph    
Visibility 10 miles    
Events Rain    
T = Trace of Precipitation, MM = Missing Value Source: NWS Daily Summary

Daily Weather History Graph

Daily Weather History Graph

Search for Another Location

Airport or City:

Trip Planner

Search our weather history database for the weather conditions in past years. The results will help you decide how hot, cold, wet, or windy it might be!

Date:

Astronomy

Apr. 26, 2012 Rise Set
Actual Time 6:25 AM MDT 8:44 PM MDT
Civil Twilight 5:51 AM MDT 9:19 PM MDT
Nautical Twilight 5:08 AM MDT 10:02 PM MDT
Astronomical Twilight 4:19 AM MDT 10:51 PM MDT
Moon 9:58 AM MDT (4/26) 1:03 AM MDT (4/26)
Length of Visible Light 15h 27m
Length of Day
14h 19m
Waxing Crescent, 25% of the Moon is Illuminated
Apr 26
Waxing Crescent
Apr 29
First Quarter
May 5
Full
May 12
Last Quarter
May 20
New

Hourly Weather History & Observations

Time (MDT) Temp. Dew Point Humidity Pressure Visibility Wind Dir Wind Speed Gust Speed Precip Events Conditions
12:55 AM 55.4 °F 42.8 °F 63% 29.69 in 10.0 mi North 9.2 mph - N/A   Overcast
1:55 AM 57.0 °F 41.0 °F 55% 29.68 in 10.0 mi WNW 4.6 mph - N/A   Overcast
2:55 AM 53.1 °F 46.0 °F 77% 29.68 in 10.0 mi Calm Calm - 0.00 in Rain Light Rain
3:55 AM 53.1 °F 46.0 °F 77% 29.68 in 10.0 mi Calm Calm - 0.00 in Rain Light Rain
4:55 AM 50.0 °F 46.9 °F 89% 29.65 in 10.0 mi North 4.6 mph - 0.00 in   Overcast
5:55 AM 51.1 °F 45.0 °F 80% 29.62 in 10.0 mi NE 4.6 mph - N/A   Overcast
6:55 AM 50.0 °F 45.0 °F 83% 29.60 in 10.0 mi NNE 4.6 mph - N/A   Overcast
7:55 AM 51.1 °F 46.9 °F 86% 29.60 in 10.0 mi Calm Calm - N/A   Mostly Cloudy
8:55 AM 51.1 °F 46.0 °F 83% 29.60 in 10.0 mi NNW 4.6 mph - N/A   Mostly Cloudy
9:55 AM 52.0 °F 46.9 °F 83% 29.56 in 10.0 mi NE 6.9 mph - 0.01 in Rain Light Rain
10:55 AM 52.0 °F 46.9 °F 83% 29.55 in 10.0 mi NNE 3.5 mph - 0.00 in   Overcast
11:55 AM 55.0 °F 48.9 °F 80% 29.52 in 10.0 mi NE 6.9 mph - 0.00 in   Overcast
12:55 PM 59.0 °F 50.0 °F 72% 29.47 in 10.0 mi Variable 4.6 mph - N/A   Overcast
1:55 PM 62.1 °F 50.0 °F 65% 29.43 in 10.0 mi ENE 5.8 mph - N/A   Scattered Clouds
2:55 PM 66.0 °F 50.0 °F 56% 29.39 in 10.0 mi NNE 5.8 mph - N/A   Mostly Cloudy
3:55 PM 66.0 °F 50.0 °F 56% 29.35 in 10.0 mi NE 5.8 mph - 0.00 in Rain Light Rain
4:55 PM 55.9 °F 53.1 °F 90% 29.39 in 3.0 mi WSW 6.9 mph - 0.09 in Rain Rain
5:55 PM 54.0 °F 51.1 °F 90% 29.49 in 7.0 mi SSE 24.2 mph 28.8 mph 0.06 in Rain Rain
6:55 PM 52.0 °F 50.0 °F 93% 29.51 in 10.0 mi SE 8.1 mph - 0.12 in Rain Light Rain
7:55 PM 53.1 °F 48.9 °F 86% 29.54 in 10.0 mi South 8.1 mph - 0.01 in   Overcast
8:55 PM 52.0 °F 44.1 °F 74% 29.55 in 10.0 mi WSW 5.8 mph - 0.00 in   Overcast
9:55 PM 50.0 °F 45.0 °F 83% 29.61 in 10.0 mi SE 3.5 mph - 0.01 in Rain Light Rain
10:55 PM 48.9 °F 43.0 °F 80% 29.65 in 10.0 mi SSW 6.9 mph - 0.01 in Rain Light Rain
11:55 PM 48.0 °F 39.9 °F 74% 29.67 in 10.0 mi SW 10.4 mph - 0.01 in Rain Light Rain